Location: Marcé
(47.5801°N, 0.3280°W)
Time: 16:27:40
(UTC+01:00)

SR - Pass Details

Date: 09 December 2021
Orbit: 582 x 872 km, 66.7° (Epoch: 22 January)

Event Time Altitude Azimuth Distance (km) Brightness Sun altitude
Rises 01:34:31 0° 272° (W) 2,883 - -63.9°
Reaches altitude 10° 01:38:01 10° 301° (WNW) 1,941 - -63.7°
Maximum altitude 01:40:03 13° 329° (NNW) 1,738 - -63.5°
Drops below altitude 10° 01:42:03 10° 357° (N) 1,917 - -63.4°
Sets 01:45:28 0° 27° (NNE) 2,815 - -63.1°
